Home > Weather > Chaguanas > Past weeks

Flag for Trinidad and Tobago Weather for the Past 2 Weeks in Chaguanas, Trinidad and Tobago

Now
86 °F

Partly sunny.


Feels Like: 92 °F
Forecast: 75 / 86 °F
Wind: 16 mph from Southeast

Location: Piarco International Airport - Trinidad

Current Time: Feb 12, 2016 at 12:35:17 PM

Latest Report: Feb 12, 2016 at 12:00 PM


Visibility: N/A

Pressure: 30.01 "Hg

Humidity: 62%

Dew point: 72 °F

Location of ChaguanasLocation

Historic Weather in Chaguanas — Graph

°F

Chaguanas Temperature Yesterday

Maximum temperature yesterday: 88 °F (at 12:00 PM)
Minimum temperature yesterday: 77 °F (at 12:00 AM)
Average temperature yesterday: 81 °F

High & Low Weather Summary for the Past Weeks

 TemperatureHumidityPressure
High91 °F (Feb 2, 3:00 PM)100% (Feb 3, 5:00 AM)30.07 "Hg (Feb 3, 5:00 AM)
Low70 °F (Feb 3, 5:00 AM)46% (Jan 31, 1:00 PM)29.83 "Hg (Feb 3, 4:00 PM)
Average79 °F79%29.95 "Hg
* Reported Jan 28 11:00 AM — Feb 12 11:00 AM, Chaguanas, Weather by CustomWeather, © 2016

Note: Actual official high and low records may vary slightly from our data, if they occured in-between our weather recording intervals... More about our weather records

Advertising

Chaguanas Weather History for the Previous 24 Hours

 ConditionsComfort  
Time TempWeatherWind HumidityBarometerVisibility
11:00 AM
Fri, Feb 12
88 °FPassing clouds.21 mph55%30.04 "HgN/A
9:00 AM82 °FScattered clouds.15 mph70%30.04 "HgN/A
8:00 AM81 °FPassing clouds.8 mph74%30.01 "HgN/A
7:00 AM75 °FScattered showers. Scattered clouds.3 mph89%29.98 "HgN/A
6:00 AM75 °FPassing clouds.No wind89%29.98 "HgN/A
5:00 AM73 °FPassing clouds.No wind94%29.98 "HgN/A
4:00 AM75 °FPassing clouds.3 mph89%29.95 "HgN/A
2:00 AM75 °FPassing clouds.No wind89%29.95 "HgN/A
1:00 AM77 °FPassing clouds.6 mph89%29.98 "Hg6 mi
12:00 AM77 °FPassing clouds.6 mph89%30.01 "Hg6 mi
11:00 PM
Thu, Feb 11
77 °FPassing clouds.No wind83%30.01 "Hg6 mi
10:00 PM77 °FPassing clouds.No wind89%30.01 "Hg6 mi
9:00 PM79 °FPassing clouds.6 mph79%30.01 "Hg6 mi
8:00 PM79 °FPassing clouds.No wind84%29.98 "HgN/A
7:00 PM79 °FPassing clouds.9 mph84%29.98 "HgN/A
5:00 PM84 °FPassing clouds.17 mph66%29.95 "HgN/A
4:00 PM84 °FPassing clouds.10 mph66%29.95 "HgN/A
3:00 PM88 °FScattered showers. Scattered clouds.16 mph62%29.95 "HgN/A
2:00 PM88 °FScattered showers. Scattered clouds.18 mph59%29.95 "HgN/A
1:00 PM88 °FScattered clouds.15 mph62%29.98 "HgN/A
12:00 PM88 °FScattered clouds.18 mph62%30.01 "HgN/A
Weather by CustomWeather, © 2016

See weather overviewHow to use our weather pages